• slide1
  • slide2
  • slide2
  • slide2
  • slide2
1 2 3 4 5

Enquiries

The following are our present purchase requirements. Vendors who are interested to supply the items mentioned below can express their interest by registering under the Vendor Registration available on the website.

PR Sl No PR No. Material Group Line Item Short Text Qty. UOM
1 1200002695   10 ACTUATOR ,QCNRV,Bore Dia 250,Stroke189, 1 EA
  1200002695   20 ACTUATOR ,QCNRV,Bore Dia 200,Stroke110, 1 EA
  1200002695   30 SEALKIT/QCNRV/RKSK9133/9133/PNEUMATROL 1 M2
2 1200002784   190 SMPS,I/P:110VAC,O/P:110VDC 8A 1 EA
3 1200002828   10 CTRLR CARD,LC02-6FC,SUNRUI 4 EA
4 1200002826   10 HT Mtr Accs,IDCT, MS Fan Cover 4mm Thick 6 EA
5 1200002678   10 NICD BATT,90 KPM 32P,1.2V,32AH 1 SET
  1200002678   20 BATT CELL,1.2V DC,50Ah,Ni-Cd,170Cells 1 SET
6 1000001080   10 COAL FEEDER,Bearing,8,22211-SRB 20 EA
  1000001080   20 COAL FEEDER,Plumerblock,6,SN 211 9 EA
  1000001080   30 COAL FEEDER,O/L GATE PILLOWBLOCK F208 16 EA
  1000001080   40 COAL FEEDER,O/L GATE SPROCKET 14 EA
  1000001080   50 COAL FEEDER,Plumer block,13,SN 209 2 EA
7 1000001067   10 TRAVELNG SCRN GEAR BOX CT SYSTM 1 EA
  1000001067   20 TRAVELNG SCRN GEAR BOX DS SYSTM 1 EA
8 1200002812   10 BATT,XP1800,180AH,EXIDE 14 EA
  1200002812   20 BATTERY,WHEEL LOADER,85 AH , 12 V, 2 EA
  1200002812   30 BATTERY,CHARGEABLE,150 AH,12 V 6 EA
  1200002812   40 SMF BATT,12V,12AH 14 EA
  1200002812   50 UPS BATT,17AH,12V, 48 EA
9 1200002892   10 H2 CONTROLLER  4-20 mA,MX-43,OLDHAM 1 EA
  1200002892   20 GD,OLC(T) 20 ,Oldham 8 EA
10 1200002894   10 PG,BT,0 - 40 Kg/Cm2,4",1/2"NPT, 80 EA
  1200002894   20 SYPHON ,1/2 " NPT GAUGE CONNECTOR,,, 60 EA
11 1200002903   10 BENCH TOP SALINITY METER, RANGE:0-50 PPT 1 PC
12 1200002919   10 AAQMS,Fire Exting,15Bar,QBD:68°C,DryPowd 7 EA
13 1200002921   10 2 TON INVERETR AIR CONDITIONER 2 SET
14 1200002939   10 LEVEL SWITCH,FLOAT GUIDED,LENGTH 490MM,, 4 EA
15 1200002934   10 TT,0-300°C,24VDC,4-20mA 6 EA
  1200002934   20 RTD,PT100,0-100°C,3/4"NPT,L=160mm,D=20mm 2 EA
  1200002934   30 RTD,PT-100,0-300°C,1/2"NPT,L=54cm,D=8mm 4 EA
16 1200002932   10 SEAL KIT 8,30x40x35 ,112x130x0.5,110x5 , 10 EA
  1200002932   20 SEAL KIT 4,47x57x11/15,180x195x16 , 10 EA
  1200002932   30 AHP,PTSeal,OD:12mm,ID:8mm,3mm thickness 20 EA
  1200002932   40 BTG,PTSeal,OD:16mm,ID:10mm,mm thickness 20 EA
  1200002932   50 FlatO-Rings,In:34X28X3,Out:38X35X1.5 20 EA
  1200002932   60 Teflon bush- Dome valve 20 EA
17 1000001101   10 AHU BALL BEARING UK210 WITH SLEEVE 2 SET
  1000001101   20 BEARING COVER NK45 4 EA
  1000001101   30 AHU BALL BEARING UK211 2 EA
  1000001101   40 BEARING COVER NK50 4 EA
  1000001101   50 UKP 211 BEARING UNIT WITH SLEEVE 2 SET
  1000001101   60 ADAPTER SLEEVE H2312 FOR UK212 BRG 2 SET
  1000001101   70 UKP 212 BEARING UNIT WITH SLEEVE 2 SET
  1000001101   80 ADAPTER SLEEVE H2316 FOR UK216 BRG 2 SET
  1000001101   90 UKP 216 BEARING UNIT WITH SLEEVE 2 SET
  1000001101   100 ADAPTER SLEEVE H2318 FOR UK218 BRG 2 SET
  1000001101   110 UK 218 RADIAL INSRT BALL BEARNG 2 EA
  1000001101   120 ADAPTER SLEEVE H2311 FOR UK211 BRG 2 SET
18 1000001097   10 PA FAN,HYDRAULIC /LUBE OIL PUMP 2 EA
19 1200002931   10 Actuator,ECF50,DN50,Rotex,0 to 100°C 2 EA
  1200002931   20 ACTUATOR,PNEU,DN80,ROTEX 5 EA
20 1000001099   10 DRAIN COVER GASKET PN:7511211-11190 SR-8 2 EA
  1000001099   20 SEPERATOR GASKET P/N:7512511-16040 SR-8 2 EA
  1000001099   30 OIL FILTER GASKET P/N:7510511-11170 SR-8 2 EA
  1000001099   40 DIS. PIPE GASKET P/N:7512511-16550 SR-8 2 EA
  1000001099   50 BEARING 7310BEGAP PN:9351001-731002 SR-8 4 EA
  1000001099   60 BEARING 7315BEGAP PN:9351001-731502 SR-8 6 EA
  1000001099   70 BEARING NJ2211ECP PN:9351701-221101 SR-8 2 EA
  1000001099   80 BEARING NU2218ECP PN:9351601-221801 SR-8 4 EA
  1000001099   90 BEARING NU2310ECP PN:9351601-231001 SR-8 2 EA
  1000001099   100 BEARING NU315ECP P/N:9351601-31501 SR-8 2 EA
  1000001099   110 OIL FILTER P/N:7510411-11141 SR-8 2 EA
  1000001099   120 COMPRESSOR OIL,R120 FOR R134A GAS 50 L
21 1200002875   10 Battery Dischrg Kit,Auto,12V-220V,0-200A 1 EA
22 1200002840   10 UG CBL LOCATOR RD7100 PL W/SFTWRE &FRAME 1 EA
23 1200002822   10 CONDENSOR COPPER COIL-MODEL:3HW18FA 4 EA
  1200002822   20 OUTDOOR FAN MOTOR,3HW24FA,BLUESTAR 3 EA
  1200002822   30 OUTDOOR FAN MOTOR,VCE-301SC,BLUESTAR 1 EA
  1200002822   40 OUTDOOR FAN MOTOR,LS13A2P,LLOYDS 4 EA
  1200002822   50 OUTDOOR FAN MOTOR,LS9A3LN,LLOYDS 3 EA
  1200002822   60 OUTDOOR FAN MOTOR,LS24A2N,LLOYDS 3 EA
  1200002822   70 OUTDOOR FAN MOTOR,3HW18FA,BLUESTAR 5 EA
  1200002822   80 OUTDOOR FAN LEAF-MODE:3HW24FA 2 EA
  1200002822   90 OUTDOOR FAN LEAF-MODE:LS13A2P 3 EA
  1200002822   100 OUTDOOR FAN LEAF-MODEL:LS24A2N 2 EA
  1200002822   110 OUTDOOR FAN LEAF-MODEL:VCE-301SC 1 EA
  1200002822   120 OUTDOOR FAN LEAF-MODEL:LS9A3LN 1 EA
  1200002822   130 OUTDOOR FAN LEAF-MODEL:3HW18FA 4 EA
  1200002822   140 INDOOR BLOWER-MODEL:LS24A2N 1 EA
  1200002822   150 INDOOR BLOWER-MODEL:LS9A3LN 1 EA
  1200002822   160 INDOOR FAN MOTOR,LS13A2P,LLOYDS 1 EA
  1200002822   170 INDOOR BLOWER-MODE:3HW24FA 1 EA
  1200002822   180 INDOOR FAN MOTOR,3HW24FA,BLUESTAR 3 EA
  1200002822   190 PCB,3HW18FA,BLUESTAR 3 EA
  1200002822   200 PCB,3HW24FA,BLUESTAR 2 EA
  1200002822   210 PCB,LS13A2P,LLOYDS 2 EA
  1200002822   220 PCB,LS9A3LN,LLOYDS 2 EA
  1200002822   230 PCB,LS24A2N,LLOYDS 2 EA
  1200002822   240 PCB,VCE-301SC,BLUESTAR 1 EA
  1200002822   250 COMPRESSOR (JLF8)-MODEL:ZR47KCE 1 EA
  1200002822   260 COMPRESSOR (JLF14)-MODEL:ZR72KCE 1 EA
  1200002822   270 COMPRESSOR (JLF22)-MODEL:ZR125KC 2 EA
  1200002822   280 COMPRESSOR (JLF28)-MODEL:ZR144KC 2 EA
  1200002822   290 COMPRESSOR (JLF58)-MODEL:ZR310KCE 1 EA
  1200002822   300 COMPRESSOR-MODE:LS13A2P 1 EA
  1200002822   310 COMPRESSOR-MODEL:VCE-301SC 2 EA
  1200002822   320 HVAC, COMPRESSOR CAPACITOR, 50 +4 MFD 10 EA
  1200002822   330 HVAC, COMPRESSOR CAPACITOR, 55 MFD 15 EA
  1200002822   340 HVAC, COMPRESSOR CAPACITOR, 45 MFD 30 EA
  1200002822   350 HVAC, SOV, 240V/TYPE:ASC2/X-28894-70001 10 EA
  1200002822   360 HVAC, PCB Board-LG-LSA5UR2F-ANLG 3 EA
  1200002822   370 HVAC,CU CONDENSOR COIL, LG-LSA5UR2F-ANLG 12 EA
  1200002822   380 HVAC,OUTDOOR FAN MOTOR, LG-LSA5UR2F-ANLG 4 EA
  1200002822   390 HVAC, OUTDOOR FAN LEAF, LG-LSA5UR2F-ANLG 4 EA
  1200002822   400 HVAC, INDOOR FAN MOTOR, LG-LSA5UR2F-ANLG 2 EA
  1200002822   410 HVAC, PCB Board-VOLTAS-1831Z1 3 EA
  1200002822   420 HVAC, OUTDOOR FAN MOTOR-VOLTAS-1831Z1 2 EA
  1200002822   430 HVAC, OUTDOOR FAN LEAF-VOLTAS-1831Z1 2 EA
  1200002822   440 HVAC, INDOOR FAN MOTOR-VOLTAS-1831Z1 1 EA
  1200002822   450 HVAC, OUTDOOR FAN MOTOR-LLOYD-FLT48A 2 EA
  1200002822   460 HVAC, OUTDOOR FAN LEAF-LLOYD-FLT48A 1 EA
  1200002822   470 HVAC, INDOOR FAN MOTOR-LLOYD-FLT48A 1 EA
  1200002822   480 HVAC, UNIVERSAL PCB BOARD 20 EA
  1200002822   490 HVAC, CU CONDENSOR  COIL-MODEL:LS13A3LN 2 EA
24 1000001104   10 SHIM,SS,THK.-0.05MM 1 EA
  1000001104   20 SHIM,SS,THK.-0.1MM 1 EA
  1000001104   30 SHIM,SS,THK.-0.2MM 1 EA
  1000001104   40 SHIM,SS,THK.-0.3mm 10 KG
  1000001104   50 SHIM,SS,THK.-0.4mm 13 KG
  1000001104   60 SHIM,SS,THK.-0.5MM 1 EA
  1000001104   70 SHIM,SS,THK1MM 32 KG
  1000001104   80 SHIM,LG10M,THK2MM,SS 1 EA
25 1000001098   10 OIL SEAL,AGITATOR,135X170X12 4 EA
  1000001098   20 OIL SEAL,55X70X10,APH MOTOR INPUT SHAFT 3 EA
  1000001098   30 OIL SEAL,140X170X16 3 EA
26 1200002924   10 Distributor,Grease,2-Outlets,ZVN 15, 6 EA
  1200002924   20 Distributor,Grease,4-Outlets,ZVN 15, 34 EA
  1200002924   30 Distributor,Grease,6-Outlets,ZVN 15, 10 EA
27 10000080   10 OIL,HYD,LHM 46,MAK HYDROL HLP 46 840 EA
28 1000001021   10 ROUNDBAR,OD150MM* ,MOC:DSS 2507 6 M
  1000001021   20 ROUNDBAR,OD150MM*,MOC:DSS 2507 6 M
29 1000001109   10 CVDET,PTLA,DXN8B0-20,80PF,85DIA 3 EA
  1000001109   20 VOLT CHKR,PTLA,DXN8B-Q, 3 EA
  1000001109   30 ET TEMP CTBX,LD-B10-220EFI,PT100,0.5, 3 EA
30 1000001107   10 OLTC TNK,BZRLY,URF 25/10,IP54,EMB 2 EA
  1000001107   20 OLTC TNK,BZRLY,URF 25/10,3m/s,IP54,EMB, 1 EA
31 1200002949   10 Coal Feeder Calibration using Chain 1 AU
32 1200002952   10 SCR-TPC CON.D.PULLY BEARING:23152 CC/W33 2 EA
  1200002952   20 Pulley,Bearing ,22240 CA/C3 1 EA
  1200002952   30 ILMS-BC-1,Bearing ,22210E, H310 2 EA
  1200002952   40 ILMS-BC-1,Bearing ,22213E, H313 2 EA
  1200002952   50 Pulley,Bearing ,23040 CK 1 EA
  1200002952   60 Bearing Adapter Sleeve,H3040, 1 EA
  1200002952   70 BEARING-NDE-SKF 6320 FR - OCCW PUMP 1 EA
33 1000001112   10 VALVE,GLOBE,DN 15,#2500,SS 316,BW,IBR 12 EA
  1000001112   20 VALVE,GLOBE,DN 25,#2500,SS 316,BW,IBR 4 EA
34 1400000147   10 OIL SEAL SPLIT TYP:226X267X8 10 EA
35 1000001121   10 BREATHTER ,BA HPP UNIT 4 EA
36 1000001111   10 CONTROL VALVE BODY,INTERNALS.SH DSH 1ST 1 EA
  1000001111   20 CONTROL VALVE BODY,INTERNALS.SH DSH 2ND 2 EA
37 1200002954   10 Transport charge for Hydraulic cylinder 1 AU
38 1200002923   10 PUMP,SP-250-SR-V-EP-2430562,,, 1 EA
39 1000001123   10 FLEX. FLNG BELLOW JOINT DN200 2 EA
  1000001123   20 FLEX. FLNG BELLOW JOINT DN125 2 EA
40 1200002940   10 U#1&2 coal Proximate & Ulimate analysis 1 AU
41 1200002966   10 FG_Anal/O2 sensor/Optima-7/MRU 1 EA
42 1200002945   10 FGD,Absrbr,pHSensorCable,KA04A205KAO,E&H 2 EA
43 1200002959   10 CYLINDER,GAS,HELIUM,7CUM 1 EA
44 1200002958   10 CYLINDER,GAS,OXYGEN,7CUM 30 EA
45 1200002906   10 BUTERFLVALVE,DN150,PN16,WAFER ,BS EN593 5 EA
  1200002906   20 BUTERFLVALVE,DN100,PN16,WAFER ,BS EN593 10 EA
  1200002906   30 GATEVALVE,DN 100,PN16,ANSI16.5 Class150 10 EA
  1200002906   40 GATEVALVE,DN150,PN16,ANSI 16.5 Class150 5 EA
  1200002906   50 GATEVALVE,DN80,PN16,ANSI 16.5 Class150 7 EA
  1200002906   60 BALL VALVE,20NB 10 EA
  1200002906   70 BALL VALVE,15NB 20 EA
  1200002906   90 GATEVALVE,DN 125,PN16,ANSI16.5 Class150 2 EA
46 1400000152   10 COUPLING,PIPE,25NB,CPVC,PN10 30 EA
  1400000152   20 ELBOW,PIPE,90 DEG,25NB,CPVC,PN10 30 EA
  1400000152   30 PIPE,25NB,CPVC,PN10 48 M
47 1200002974   10 COUPLING,PIPE,25NB,CPVC,PN10 10 EA
48 10000082   10 OIL,HYD,P/N:ISO VG 320/EP320 2,496 L
49 10000081   10 OIL,HYD,P/N:ISO VG 680/OMALA S2 G680 1,254 L
50 1200002967   10 Safety Helmet IS 2925 5 EA
  1200002967   20 Safety Shoe,Size no.5 -Ladies type model 3 EA
  1200002967   30 SHOE,SFTY,7 17 EA
  1200002967   40 SHOE,SFTY,8 25 EA
  1200002967   50 SHOE,SFTY,9 34 EA
  1200002967   60 SHOE,SFTY,10 22 EA
  1200002967   70 SHOE,SFTY,11 2 EA
  1200002967   80 Safety Shoe 12" 1 PAA
51 1200002980   20 BEARING,FGD/HYD FLTR PRESS,6005 RS 80 EA
  1200002980   30 BEARING,FGD/AGITATOR,6201 2RS 10 EA
52 1000001129   10 COAL FEEDER,BELT,3,1000X5[3+1.5]X6370 14 EA
53 1400000153   20 BEARING,BALL,RDL CTT,P/N:6313 C3 8 EA
  1400000153   50 BEARING,6408-N,COALMILL HOIST GEARBOX 2 EA
  1400000153   70 BRG,,6207-ZZ-C3,,SKF 2 EA
  1400000153   80 BEARING,BALL,P/N:6221 2RS 2 EA
54 1200002984   10 Reparing for phyrometer model no:RAY3IPL 1 AU
55 1200002970   10 Deluge valve Diaphragm,150 NB,type-A, 3 EA
  1200002970   20 Deluge valve Diaphragm,100 NB,type-A, 3 EA
  1200002970   30 Deluge valve Diaphragm,80NB,type-A, 3 EA
  1200002970   40 HYDRANT VLVE,RUBBER GASKET,IS:937-1981, 100 EA
56 1000001127   10 THRUST BALL BRG,FGD/AGITATOR,51212 2 EA
  1000001127   20 BEARING,FGD/AGITATOR,6201 2RS 6 EA
  1000001127   30 BEARING,FGD/AGITATOR,6212 RZ 2 EA
57 1000001124   10 HYD HOSE,BOOSTER  FAN,CONTROL OIL1 4 EA
  1000001124   20 HYD HOSE,BOOSTER  FAN,CONTROL OIL2 4 EA
  1000001124   30 HYD HOSE,BOOSTER  FAN,CONTROL OIL DRAIN1 2 EA
  1000001124   40 HYD HOSE,BOOSTER  FAN,CONTROL OIL DRAIN2 2 EA
  1000001124   50 HYD HOSE,BALL MILL,BEARING COOLING WATER 4 EA
58 1200002985   10 PA GATE CNTRL PANEL,SS304,740x600x400, 4 EA
  1200002985   20 IGNITION CNTRL PANEL,SS304,830x600x260, 1 EA
  1200002985   30 REJ CNTRL PANEL,SS305,800x630x270, 1 EA
  1200002985   40 HAG CNTRL PANEL,SS306,1200x800x230, 1 EA
59 1200002982   10 PGA FOR O/L DGA MULTITRANS PNO:PGAX00018 1 EA
60 1200002981   10 Calibtaion of vibration analyzer by OE 1 AU
61 1200002978   10 Calibration of PMI Instruments 1 AU
62 1200002922   10 HDPE,COLLAR,90MM, 10 EA
  1200002922   20 COLLAR,110MM,HDPE 10 EA
  1200002922   30 COLLAR,HDPE,250MM,PN16 6 EA
  1200002922   40 Tee,Unequal,HDPE,PE100,180X180X110MM OD 10 SET
  1200002922   50 Tee,Unequal,HDPE,PE100,250X250X180MM OD 5 EA
  1200002922   60 HDPE,REDUCER,180X90MM, 10 EA
  1200002983   10 REFRIG,GAS,R22, 120 KG
  1200002983   20 REFRIG,GAS,R134A, 300 KG
63 1000001133   10 ISMB-400,ROLLED BEAM,F-140MM,L-6000MM 10 EA
64 1000001130   10 INSULATION,CERAMIC  ROPE,Φ20mm 150 M
  1000001130   20 INSULATION,CERAMIC  ROPE,Φ30mm 150 M
  1000001130   30 INSULATION,GLASS CLOTH,.0.1MM THK. 50 M2
  1000001130   40 CERAMIC ROPE, 6MM, ROUND 20 KG
  1000001130   50 CERAMIC ROPE,16MM,SQUARE 10 KG
  1000001130   60 GRAPHITE ROPE,25MM,SQUARE,METALLIC 20 KG
  1000001130   70 CERAMIC ROPE,12MM,ROUND 25 KG
  1000001130   80 GRAPHITE GLAND ROPE,TYPE:METALIC,SIZE8MM 10 KG
  1000001130   90 CERAMIC ROPE,20MM,SQUARE 20 KG
  1000001130   100 CERAMIC ROPE,14MM,ROUND 30 KG
  1000001130   120 ROPE,GRAFLON,NON METALLIC SQUARE,18MM 10 KG
  1000001130   130 CERAMIC ROPE,8MM,ROUND 10 KG
65 1000001136   10 Head Sprocket,Cleaning Chain,Primary 4 EA
  1000001136   20 Head Sprocket,Cleaning Chain,Secondary 3 EA
66 1200002994   10 TRANSFORMER OIL TESTING AMC 1 AU
67 1000001132   20 DAILY SERVICE FEE FOR ONE EXPERT 1 AU
68 1000001135   10 GASKET GRAFIT-1.4541,01077441,P/N:411 2 EA
  1000001135   20 GLAND PAKG 4ST+2ST,01724611,P/N:461.1+2 2 SET
  1000001135   30 GASKET GRAFIT-1.4541,00237745,P/N:411 2 EA
  1000001135   40 GLAND PAKG 4ST+2ST,01724608,P/N:461.1+2 2 SET
  1000001135   50 GASKET GRAFIT-1.4541,00237744,P/N:411 2 EA
  1000001135   60 GLAND PAKG 4ST+2ST,01724516,P/N:461.1+2 2 SET
  1000001135   70 GASKET GRAFIT-1.4541,01061920,P/N:411 6 EA
  1000001135   80 GLAND PAKG 4ST+2ST,01724515,P/N:461.1+2 6 SET
69 1200003001   10 SCANNER HOSE,DE-FSSS-SH, 20 EA
70 1200002995   10 Application of Chock Fast orange Compoun 1 AU
71 1200003013   10 Zero Speed Switch,Proto Control 5 EA
  1200003013   20 PROXIMITY ,24V, 20 mm,NI20M30AP6X,3-wire 15 EA
72 1200003006   10 EDG,Controller,DSE8610, 1 EA
  1200003006   20 EDG,O/p Exp Mod,DSE2157, 1 EA
  1200003006   30 EDG,Batt Charger,DSE9470/80, 1 EA
73 1400000156   10 BRUSH SCRN  ROLLER,60x16x23 mm 300 EA
  1400000156   20 COTTER PIN 2.5MM SS-316 FOR 3MM HOLE 700 EA
74 1000001138   10 BRG,309 N,COAL MILL HOIST FIXED PULLEY 4 EA
  1000001138   20 BEARING,6319-ZN,COALMILL HOIST GEARBOX 1 EA
  1000001138   30 BEARING,BALL,P/N:6407 N TMB 2 EA
  1000001138   40 BEARING,6408-N,COALMILL HOIST GEARBOX 2 EA
  1000001138   50 BEARING,RLR,P/N:4074113 4 EA
75 1000001137   10 GASKET,P/N:POS 5,MS STOP VALVE 2 EA
  1000001137   20 GLAND PACKING,P/N:POS 8,MS STOP VALVE 2 SET
  1000001137   30 GROUND RING,P/N:POS 279,MS STOP VALVE 2 EA
  1000001137   40 CUT RING,P/N:POS 121,MS STOP VALVE 2 EA
76 1200003003   10 Nylon Lifting Belt 5 MT  7 METRES 2 EA
  1200003003   20 Nylon Lifting Belt 2 MT  10 METRES 2 EA
  1200003003   30 Nylon Lifting Belt 3 MT  6 Meters 2 EA
  1200003003   40 BAR,CROW 3 EA
  1200003003   50 TAPE,MEASURING,5M,STL 5 EA
  1200003003   60 FRAME,HACKSAW 2 EA
  1200003003   70 Hammer 5 LBS 2 EA
  1200003003   80 HAMMER,2LBS 2 EA
  1200003003   90 Wire Sling 5 MT  8 METRES 2 EA
  1200003003   100 Tin Cutter 2 EA